Regional Weather Roundup
Issued by NWS

Home | Current Version | Previous Version | Text Only | Print | Product List | Glossary On
Versions: 1 2 3 4 5 6 7 8 9 10 11 12 13 14 15 16 17 18 19 20 21 22 23 24 25 26 27 28 29 30 31 32 33 34 35 36 37 38 39 40 41 42 43 44 45 46 47 48 49 50
000
ASUS43 KFSD 131210
RWRSD

WEATHER ROUNDUP FOR SOUTH DAKOTA
NATIONAL WEATHER SERVICE SIOUX FALLS SD
700 AM CDT SUN JUL 13 2014

NOTE: "FAIR" INDICATES FEW OR NO CLOUDS BELOW 12,000 FEET WITH NO
SIGNIFICANT WEATHER AND/OR OBSTRUCTIONS TO VISIBILITY.


SDZ001>005-009-010-012>017-131300-
NORTHWEST AND NORTH CENTRAL SOUTH DAKOTA

CITY           SKY/WX    TMP DP  RH WIND       PRES   REMARKS
BUFFALO          N/A     57  48  72 W9        30.12R
FAITH            N/A     59  53  80 W7        30.13S
MOBRIDGE       CLEAR     58  57  97 CALM      30.06R
$$

SDZ012>016-024>037-041>051-057-063-072>074-131300-
SOUTHWEST AND SOUTH CENTRAL SOUTH DAKOTA

CITY           SKY/WX    TMP DP  RH WIND       PRES   REMARKS
RAPID CTY ARPT PTCLDY    60  52  74 W7        30.20R
PIERRE         CLEAR     63  63 100 W3        30.08R
CUSTER         PTCLDY    53  44  71 NW3       30.33R
ELLSWORTH AFB  PTCLDY    65  51  60 N10       30.20R
PHILIP         CLEAR     60  57  89 W7        30.14R
PINE RIDGE     CLEAR     53  53 100 CALM      30.21R
WINNER         FAIR      63  60  90 W6        30.11R
$$

SDZ004>011-016>023-039-040-131300-
NORTHEAST SOUTH DAKOTA

CITY           SKY/WX    TMP DP  RH WIND       PRES   REMARKS
ABERDEEN       CLEAR     54  53  97 W3        30.04R
WATERTOWN      CLEAR     59  58  96 CALM      30.03R
SISSETON         N/A     58  54  86 W3        30.00R
$$

SDZ017-020-022-023-036>040-048>070-131300-
SOUTHEAST SOUTH DAKOTA

CITY           SKY/WX    TMP DP  RH WIND       PRES   REMARKS
SIOUX FALLS    PTCLDY    66  62  87 CALM      30.05R
HURON          CLEAR     61  59  93 NW5       30.05R
CHAMBERLAIN    CLEAR     62  61  96 W5        30.09R
MITCHELL       PTCLDY    63  61  93 CALM      30.07R
YANKTON        CLEAR     66  63  88 W5        30.07R
$$

ABBREVIATIONS USED IN REMARKS
   TC - TEMPERATURE IN CELSIUS
  WCI - WIND CHILL INDEX
   HX - HEAT INDEX
  VSB - VISIBILITY



USA.gov is the U.S. government's official web portal to all federal, state and local government web resources and services.